Location: Maiden
(35.5760°N, 81.2120°W)
Time: 03:01:44
(UTC-04:00)

USA 32 - Pass Details

Date: 02 August 2020
Orbit: 776 x 784 km, 85.0° (Epoch: 09 August)

Event Time Altitude Azimuth Distance (km) Brightness Sun altitude
Exits shadow 23:32:00 62° 339° (NNW) 874 4.4 -30.0°
Drops below altitude 10° 23:36:25 10° 1° (N) 2,335 7.2 -30.5°
Sets 23:38:47 0° 3° (N) 3,265 8.0 -30.7°
